Time,TemperatureF,DewpointF,PressureIn,WindDirection,WindDirectionDegrees,WindSpeedMPH,WindSpeedGustMPH,Humidity,HourlyPrecipIn,Conditions,Clouds,dailyrainin,SolarRadiationWatts/m^2,SoftwareType,DateUTC
2013-03-19 00:03:00,62.0,60.0,-100.00,SSE,153,1.0,2.0,93,0.00,,,0.07,0.000000,,2013-03-19 04:03:00,
2013-03-19 00:34:00,62.0,52.0,-100.00,NNW,346,5.0,16.0,71,0.07,,,0.14,0.000000,,2013-03-19 04:34:00,
2013-03-19 00:43:00,62.0,52.0,-100.00,NNW,346,5.0,16.0,71,0.07,,,0.14,0.000000,,2013-03-19 04:43:00,
2013-03-19 00:53:00,62.0,52.0,-100.00,NNW,346,5.0,16.0,71,0.07,,,0.14,0.000000,,2013-03-19 04:53:00,
2013-03-19 01:02:00,62.0,52.0,-100.00,NNW,346,5.0,16.0,71,0.07,,,0.14,0.000000,,2013-03-19 05:02:00,
2013-03-19 01:33:00,59.0,57.0,-100.00,West,265,2.0,6.0,93,0.13,,,0.27,0.000000,,2013-03-19 05:33:00,
2013-03-19 01:43:00,59.0,57.0,-100.00,West,265,2.0,6.0,93,0.13,,,0.27,0.000000,,2013-03-19 05:43:00,
2013-03-19 01:52:00,59.0,57.0,-100.00,West,265,2.0,6.0,93,0.13,,,0.27,0.000000,,2013-03-19 05:52:00,
2013-03-19 02:02:00,59.0,57.0,-100.00,West,265,2.0,6.0,93,0.13,,,0.27,0.000000,,2013-03-19 06:02:00,
2013-03-19 02:22:00,59.0,58.0,-100.00,WNW,283,2.0,4.0,95,0.01,,,0.28,0.000000,,2013-03-19 06:22:00,
2013-03-19 02:32:00,59.0,58.0,-100.00,WNW,283,2.0,4.0,95,0.01,,,0.28,0.000000,,2013-03-19 06:32:00,
2013-03-19 02:42:00,59.0,58.0,-100.00,WNW,283,2.0,4.0,95,0.01,,,0.28,0.000000,,2013-03-19 06:42:00,
2013-03-19 02:53:00,59.0,58.0,-100.00,WNW,283,2.0,4.0,95,0.01,,,0.28,0.000000,,2013-03-19 06:53:00,
2013-03-19 03:02:00,59.0,58.0,-100.00,WNW,283,2.0,4.0,95,0.01,,,0.28,0.000000,,2013-03-19 07:02:00,
2013-03-19 03:32:00,58.0,57.0,-100.00,SE,133,2.0,3.0,95,0.00,,,0.28,0.000000,,2013-03-19 07:32:00,
2013-03-19 03:42:00,58.0,57.0,-100.00,SE,133,2.0,3.0,95,0.00,,,0.28,0.000000,,2013-03-19 07:42:00,
2013-03-19 03:53:00,58.0,57.0,-100.00,SE,133,2.0,3.0,95,0.00,,,0.28,0.000000,,2013-03-19 07:53:00,
2013-03-19 04:03:00,58.0,57.0,-100.00,SE,133,2.0,3.0,95,0.00,,,0.28,0.000000,,2013-03-19 08:03:00,
2013-03-19 04:33:00,58.0,57.0,-100.00,South,185,5.0,16.0,95,0.01,,,0.29,0.000000,,2013-03-19 08:33:00,
2013-03-19 04:43:00,58.0,57.0,-100.00,South,185,5.0,16.0,95,0.01,,,0.29,0.000000,,2013-03-19 08:43:00,
2013-03-19 04:53:00,58.0,57.0,-100.00,South,185,5.0,16.0,95,0.01,,,0.29,0.000000,,2013-03-19 08:53:00,
2013-03-19 05:03:00,58.0,57.0,-100.00,South,185,5.0,16.0,95,0.01,,,0.29,0.000000,,2013-03-19 09:03:00,
2013-03-19 05:04:00,58.0,56.0,-100.00,West,262,1.0,12.0,93,0.00,,,0.29,0.000000,,2013-03-19 09:04:00,
2013-03-19 05:23:00,58.0,56.0,-100.00,West,262,1.0,12.0,93,0.00,,,0.29,0.000000,,2013-03-19 09:23:00,
2013-03-19 05:33:00,58.0,56.0,-100.00,West,262,1.0,12.0,93,0.00,,,0.29,0.000000,,2013-03-19 09:33:00,
2013-03-19 05:43:00,58.0,56.0,-100.00,West,262,1.0,12.0,93,0.00,,,0.29,0.000000,,2013-03-19 09:43:00,
2013-03-19 05:53:00,58.0,56.0,-100.00,West,262,1.0,12.0,93,0.00,,,0.29,0.000000,,2013-03-19 09:53:00,
2013-03-19 06:33:00,57.0,55.0,-100.00,WNW,285,3.0,5.0,94,0.00,,,0.29,0.000000,,2013-03-19 10:33:00,
2013-03-19 06:42:00,57.0,55.0,-100.00,WNW,285,3.0,5.0,94,0.00,,,0.29,0.000000,,2013-03-19 10:42:00,
2013-03-19 06:53:00,57.0,55.0,-100.00,WNW,285,3.0,5.0,94,0.00,,,0.29,0.000000,,2013-03-19 10:53:00,
2013-03-19 07:03:00,57.0,55.0,-100.00,WNW,285,3.0,5.0,94,0.00,,,0.29,0.000000,,2013-03-19 11:03:00,
2013-03-19 07:33:00,58.0,56.0,-100.00,South,183,4.0,12.0,94,0.01,,,0.28,0.000000,,2013-03-19 11:33:00,
2013-03-19 07:43:00,58.0,56.0,-100.00,South,183,4.0,12.0,94,0.01,,,0.28,0.000000,,2013-03-19 11:43:00,
2013-03-19 07:53:00,58.0,56.0,-100.00,South,183,4.0,12.0,94,0.01,,,0.28,0.000000,,2013-03-19 11:53:00,
2013-03-19 08:02:00,58.0,56.0,-100.00,South,183,4.0,12.0,94,0.01,,,0.28,0.000000,,2013-03-19 12:02:00,
2013-03-19 08:23:00,58.0,56.0,-100.00,SE,140,1.0,9.0,94,0.00,,,0.23,8.000000,,2013-03-19 12:23:00,
2013-03-19 08:33:00,58.0,56.0,-100.00,SE,140,1.0,9.0,94,0.00,,,0.23,8.000000,,2013-03-19 12:33:00,
2013-03-19 08:43:00,58.0,56.0,-100.00,SE,140,1.0,9.0,94,0.00,,,0.23,8.000000,,2013-03-19 12:43:00,
2013-03-19 08:52:00,58.0,56.0,-100.00,SE,140,1.0,9.0,94,0.00,,,0.23,8.000000,,2013-03-19 12:52:00,
2013-03-19 09:02:00,58.0,56.0,-100.00,SE,140,1.0,9.0,94,0.00,,,0.23,8.000000,,2013-03-19 13:02:00,
2013-03-19 09:33:00,61.0,59.0,-100.00,West,280,3.0,6.0,94,0.00,,,0.23,100.000000,,2013-03-19 13:33:00,
2013-03-19 09:42:00,61.0,59.0,-100.00,West,280,3.0,6.0,94,0.00,,,0.23,100.000000,,2013-03-19 13:42:00,
2013-03-19 09:53:00,61.0,59.0,-100.00,West,280,3.0,6.0,94,0.00,,,0.23,100.000000,,2013-03-19 13:53:00,
2013-03-19 10:02:00,61.0,59.0,-100.00,West,280,3.0,6.0,94,0.00,,,0.23,100.000000,,2013-03-19 14:02:00,
2013-03-19 10:33:00,65.0,60.0,-100.00,WNW,284,7.0,13.0,84,0.00,,,0.23,341.000000,,2013-03-19 14:33:00,
2013-03-19 10:42:00,65.0,60.0,-100.00,WNW,284,7.0,13.0,84,0.00,,,0.23,341.000000,,2013-03-19 14:42:00,
2013-03-19 10:53:00,65.0,60.0,-100.00,WNW,284,7.0,13.0,84,0.00,,,0.23,341.000000,,2013-03-19 14:53:00,
2013-03-19 11:02:00,65.0,60.0,-100.00,WNW,284,7.0,13.0,84,0.00,,,0.23,341.000000,,2013-03-19 15:02:00,
2013-03-19 11:04:00,67.0,59.0,-100.00,WNW,298,9.0,16.0,76,0.00,,,0.23,457.000000,,2013-03-19 15:04:00,
2013-03-19 11:34:00,67.0,59.0,-100.00,WNW,298,9.0,16.0,76,0.00,,,0.23,457.000000,,2013-03-19 15:34:00,
2013-03-19 11:44:00,67.0,59.0,-100.00,WNW,298,9.0,16.0,76,0.00,,,0.23,457.000000,,2013-03-19 15:44:00,
2013-03-19 11:54:00,67.0,59.0,-100.00,WNW,298,9.0,16.0,76,0.00,,,0.23,457.000000,,2013-03-19 15:54:00,
2013-03-19 12:34:00,67.0,59.0,-100.00,WNW,301,7.0,16.0,76,0.00,,,0.23,322.000000,,2013-03-19 16:34:00,
2013-03-19 12:44:00,67.0,59.0,-100.00,WNW,301,7.0,16.0,76,0.00,,,0.23,322.000000,,2013-03-19 16:44:00,
2013-03-19 12:55:00,67.0,59.0,-100.00,WNW,301,7.0,16.0,76,0.00,,,0.23,322.000000,,2013-03-19 16:55:00,
2013-03-19 13:03:00,67.0,59.0,-100.00,WNW,301,7.0,16.0,76,0.00,,,0.23,322.000000,,2013-03-19 17:03:00,
2013-03-19 13:35:00,69.0,59.0,-100.00,WNW,302,6.0,14.0,71,0.00,,,0.23,496.000000,,2013-03-19 17:35:00,
2013-03-19 13:44:00,69.0,59.0,-100.00,WNW,302,6.0,14.0,71,0.00,,,0.23,496.000000,,2013-03-19 17:44:00,
2013-03-19 13:53:00,69.0,59.0,-100.00,WNW,302,6.0,14.0,71,0.00,,,0.23,496.000000,,2013-03-19 17:53:00,
2013-03-19 14:03:00,69.0,59.0,-100.00,WNW,302,6.0,14.0,71,0.00,,,0.23,496.000000,,2013-03-19 18:03:00,
2013-03-19 14:34:00,70.0,59.0,-100.00,WNW,282,6.0,13.0,68,0.00,,,0.23,672.000000,,2013-03-19 18:34:00,
2013-03-19 14:44:00,70.0,59.0,-100.00,WNW,282,6.0,13.0,68,0.00,,,0.23,672.000000,,2013-03-19 18:44:00,
2013-03-19 14:53:00,70.0,59.0,-100.00,WNW,282,6.0,13.0,68,0.00,,,0.23,672.000000,,2013-03-19 18:53:00,
2013-03-19 15:02:00,70.0,59.0,-100.00,WNW,282,6.0,13.0,68,0.00,,,0.23,672.000000,,2013-03-19 19:02:00,
2013-03-19 15:33:00,73.0,58.0,-100.00,WNW,291,7.0,14.0,59,0.00,,,0.23,757.000000,,2013-03-19 19:33:00,
2013-03-19 15:43:00,73.0,58.0,-100.00,WNW,291,7.0,14.0,59,0.00,,,0.23,757.000000,,2013-03-19 19:43:00,
2013-03-19 15:53:00,73.0,58.0,-100.00,WNW,291,7.0,14.0,59,0.00,,,0.23,757.000000,,2013-03-19 19:53:00,
2013-03-19 16:03:00,73.0,58.0,-100.00,WNW,291,7.0,14.0,59,0.00,,,0.23,757.000000,,2013-03-19 20:03:00,
2013-03-19 16:33:00,76.0,58.0,-100.00,NW,314,6.0,12.0,53,0.00,,,0.23,820.000000,,2013-03-19 20:33:00,
2013-03-19 16:43:00,76.0,58.0,-100.00,NW,314,6.0,12.0,53,0.00,,,0.23,820.000000,,2013-03-19 20:43:00,
2013-03-19 16:53:00,76.0,58.0,-100.00,NW,314,6.0,12.0,53,0.00,,,0.23,820.000000,,2013-03-19 20:53:00,
2013-03-19 17:02:00,76.0,58.0,-100.00,NW,314,6.0,12.0,53,0.00,,,0.23,820.000000,,2013-03-19 21:02:00,
2013-03-19 17:34:00,76.0,52.0,-100.00,WNW,294,6.0,12.0,43,0.00,,,0.23,670.000000,,2013-03-19 21:34:00,
2013-03-19 17:43:00,76.0,52.0,-100.00,WNW,294,6.0,12.0,43,0.00,,,0.23,670.000000,,2013-03-19 21:43:00,
2013-03-19 17:53:00,76.0,52.0,-100.00,WNW,294,6.0,12.0,43,0.00,,,0.23,670.000000,,2013-03-19 21:53:00,
2013-03-19 18:03:00,76.0,52.0,-100.00,WNW,294,6.0,12.0,43,0.00,,,0.23,670.000000,,2013-03-19 22:03:00,
2013-03-19 18:34:00,76.0,52.0,-100.00,WNW,300,5.0,11.0,43,0.00,,,0.23,454.000000,,2013-03-19 22:34:00,
2013-03-19 18:44:00,76.0,52.0,-100.00,WNW,300,5.0,11.0,43,0.00,,,0.23,454.000000,,2013-03-19 22:44:00,
2013-03-19 18:54:00,76.0,52.0,-100.00,WNW,300,5.0,11.0,43,0.00,,,0.23,454.000000,,2013-03-19 22:54:00,
2013-03-19 19:03:00,76.0,52.0,-100.00,WNW,300,5.0,11.0,43,0.00,,,0.23,454.000000,,2013-03-19 23:03:00,
2013-03-19 19:22:00,73.0,50.0,-100.00,WNW,295,3.0,10.0,44,0.00,,,0.23,217.000000,,2013-03-19 23:22:00,
2013-03-19 19:33:00,73.0,50.0,-100.00,WNW,295,3.0,10.0,44,0.00,,,0.23,217.000000,,2013-03-19 23:33:00,
2013-03-19 19:43:00,73.0,50.0,-100.00,WNW,295,3.0,10.0,44,0.00,,,0.23,217.000000,,2013-03-19 23:43:00,
2013-03-19 19:53:00,73.0,50.0,-100.00,WNW,295,3.0,10.0,44,0.00,,,0.23,217.000000,,2013-03-19 23:53:00,
2013-03-19 20:03:00,73.0,50.0,-100.00,WNW,295,3.0,10.0,44,0.00,,,0.23,217.000000,,2013-03-20 00:03:00,
2013-03-19 20:33:00,63.0,54.0,-100.00,SW,224,0.0,5.0,72,0.00,,,0.23,10.000000,,2013-03-20 00:33:00,
2013-03-19 20:43:00,63.0,54.0,-100.00,SW,224,0.0,5.0,72,0.00,,,0.23,10.000000,,2013-03-20 00:43:00,
2013-03-19 20:52:00,63.0,54.0,-100.00,SW,224,0.0,5.0,72,0.00,,,0.23,10.000000,,2013-03-20 00:52:00,
2013-03-19 21:03:00,63.0,54.0,-100.00,SW,224,0.0,5.0,72,0.00,,,0.23,10.000000,,2013-03-20 01:03:00,
2013-03-19 21:23:00,57.0,53.0,-100.00,North,6,0.0,0.0,85,0.00,,,0.23,0.000000,,2013-03-20 01:23:00,
2013-03-19 21:32:00,57.0,53.0,-100.00,North,6,0.0,0.0,85,0.00,,,0.23,0.000000,,2013-03-20 01:32:00,
2013-03-19 21:43:00,57.0,53.0,-100.00,North,6,0.0,0.0,85,0.00,,,0.23,0.000000,,2013-03-20 01:43:00,
2013-03-19 21:53:00,57.0,53.0,-100.00,North,6,0.0,0.0,85,0.00,,,0.23,0.000000,,2013-03-20 01:53:00,
2013-03-19 22:02:00,57.0,53.0,-100.00,North,6,0.0,0.0,85,0.00,,,0.23,0.000000,,2013-03-20 02:02:00,
2013-03-19 22:23:00,54.0,51.0,-100.00,NW,324,0.0,1.0,90,0.00,,,0.23,0.000000,,2013-03-20 02:23:00,
2013-03-19 22:32:00,54.0,51.0,-100.00,NW,324,0.0,1.0,90,0.00,,,0.23,0.000000,,2013-03-20 02:32:00,
2013-03-19 22:43:00,54.0,51.0,-100.00,NW,324,0.0,1.0,90,0.00,,,0.23,0.000000,,2013-03-20 02:43:00,
2013-03-19 22:53:00,54.0,51.0,-100.00,NW,324,0.0,1.0,90,0.00,,,0.23,0.000000,,2013-03-20 02:53:00,
2013-03-19 23:02:00,54.0,51.0,-100.00,NW,324,0.0,1.0,90,0.00,,,0.23,0.000000,,2013-03-20 03:02:00,
2013-03-19 23:34:00,51.0,49.0,-100.00,NW,310,1.0,2.0,92,0.00,,,0.23,0.000000,,2013-03-20 03:34:00,
2013-03-19 23:43:00,51.0,49.0,-100.00,NW,310,1.0,2.0,92,0.00,,,0.23,0.000000,,2013-03-20 03:43:00,
2013-03-19 23:53:00,51.0,49.0,-100.00,NW,310,1.0,2.0,92,0.00,,,0.23,0.000000,,2013-03-20 03:53:00,